[ ตารางข้อมูล ] [ Min-Max ] [ วันนี้2 ] [ วันนี้4 ] [ เทียบ-A 3วัน ] [ เทียบ-B 4วัน ]   

วันนี้4   [ ◀ ช่วงเก่ากว่า ] [ ช่วงที่ 21 ] [ ช่วงใหม่กว่า ▶ ] [ ล่าสุด ]    [ 3 ชั่วโมง ] [ 6 ชั่วโมง ] [ 12 ชั่วโมง ] [ 24 ชั่วโมง ]   วันนี้4

อุณภูมิในตู้ Knockdown4529  ราย 24 ชั่วโมง  ที่วัดได้ ในช่วงวันเวลา 11/08/2026 (19:57) ถึง 12/08/2026 (19:57) 
ความชื้นในตู้ Knockdown4529  ราย 24 ชั่วโมง  ที่วัดได้ ในช่วงวันเวลา 11/08/2026 (19:57) ถึง 12/08/2026 (19:57) 
การใช้ไฟฟ้าในตู้ Knockdown4529  ราย 24 ชั่วโมง  ที่วัดได้ ในช่วงวันเวลา 11/08/2026 (19:57) ถึง 12/08/2026 (19:57) 

  DS18B20SHTC3PZEM-004TWiFi 
IDDate d/m/Y & Timedata1
สูง
data2
ต่ำ
data3
นอก
temp
pcb
hum
pcb
VoltAmpWattrssiTime
 12003  12/08/2026 19:52:58  32.1  32.2  30.4  33.1  66.6  229.1  0.04  4.6  -77  19:52 
 12002  12/08/2026 19:48:15  32.1  32.2  30.4  33.2  66.8  229.6  0.04  4.6  -78  19:48 
 12001  12/08/2026 19:43:31  32.1  32.2  30.4  33.1  66.6  229.7  0.04  4.6  -77  19:43 
 12000  12/08/2026 19:38:48  32.1  32.2  30.3  33.3  66.8  229.5  0.04  4.6  -77  19:38 
 11999  12/08/2026 19:34:05  32.1  32.2  30.4  33.2  66.8  227.8  0.04  4.6  -76  19:34 
 11998  12/08/2026 19:29:22  32.1  32.2  30.4  33.1  66.8  228.0  0.04  4.6  -76  19:29 
 11997  12/08/2026 19:24:38  32.2  32.3  30.4  33.1  66.7  227.6  0.04  4.6  -77  19:24 
 11996  12/08/2026 19:19:55  32.2  32.3  30.6  33.3  66.7  226.5  0.04  4.6  -78  19:19 
 11995  12/08/2026 19:15:11  32.2  32.3  30.9  33.3  66.7  226.3  0.04  4.6  -77  19:15 
 11994  12/08/2026 19:10:28  32.3  32.4  30.9  33.6  66.5  228.0  0.04  4.6  -75  19:10 
 11993  12/08/2026 19:05:45  32.4  32.4  30.7  33.5  66.4  228.0  0.04  4.6  -77  19:05 
 11992  12/08/2026 19:01:02  32.4  32.4  30.9  33.6  66.2  228.1  0.04  4.6  -77  19:01 
 11991  12/08/2026 18:56:18  32.4  32.4  31.2  33.6  66.2  228.6  0.04  4.6  -77  18:56 
 11990  12/08/2026 18:51:35  32.4  32.4  31.2  33.5  66.1  228.8  0.04  4.6  -76  18:51 
 11989  12/08/2026 18:46:52  32.5  32.5  31.2  33.6  66.0  227.8  0.04  4.6  -78  18:46 
 11988  12/08/2026 18:42:09  32.5  32.5  31.3  33.6  66.0  228.4  0.04  4.6  -77  18:42 
 11987  12/08/2026 18:37:25  32.6  32.5  31.3  33.6  65.8  229.4  0.04  4.6  -79  18:37 
 11986  12/08/2026 18:32:42  32.6  32.5  31.3  33.6  66.1  229.4  0.04  4.6  -78  18:32 
 11985  12/08/2026 18:27:59  32.6  32.6  31.3  33.6  66.1  226.0  0.04  4.6  -79  18:27 
 11984  12/08/2026 18:23:16  32.6  32.6  31.4  33.7  66.0  230.2  0.04  4.6  -78  18:23 
 11983  12/08/2026 18:18:32  32.7  32.6  31.3  33.6  65.8  229.7  0.04  4.6  -76  18:18 
 11982  12/08/2026 18:13:47  32.8  32.6  31.4  33.7  65.9  230.3  0.04  4.6  -77  18:13 
 11981  12/08/2026 18:09:03  32.8  32.6  31.4  33.8  66.0  230.4  0.04  4.6  -80  18:09 
 11980  12/08/2026 18:04:20  32.8  32.6  31.5  33.8  65.8  229.2  0.04  4.6  -78  18:04 

Data every 5 minute.


ใช้เวลาประมวลผล 0.05812 วินาที